Погода в Гуарапари

Бразилия     20°39′44″S   40°30′04″W
темп.,
°C
ветер,
м/с
пор.,
м/с
влажн.,
%
обл.,
%
осадки,
мм/ч
давл.,
гПа
погр.,
м
17 мая, пн
пн1700:00+20с23795 0.0 1019206
03:00+20с228116 0.0 1018123
06:00+19с238295 0.0 1018128
09:00+23ссв356794 0.0 1019536
12:00+25всв656570 0.0 1017782
15:00+24св7769100 0.0 1015648
18:00+23св6775100 0.0 1016451
21:00+22ссв6880100 0.0 1016435
18 мая, вт
вт1800:00+21ссв578377 0.0 1015270
03:00+20ссз3383100 0.0 1014131
06:00+19сз1180100 0.0 1015103
09:00+22юз2273100 0.0 1017251
12:00+24ю33685 0.0 1016462
15:00+24ююв457027 0.0 1014565
18:00+23ю3374100 0.0 1016538
21:00+23ююз337656 0.0 1017563
19 мая, ср
ср1900:00+22юз448126 0.1 1017534
03:00+22юз458341 0.3 1016452
06:00+21зюз348640 0.1 1017344
09:00+22юз338025 0.1 1018401
12:00+22ююв327724 0.0 1017334
15:00+23вюв337425 0.1 1015415
18:00+23всв237755 0.0 1016383
21:00+23св237872 0.0 1017415
20 мая, чт
чт2000:00+22ссз128299 0.0 1016164
03:00+21з118592 0.1 1015103
06:00+20зсз228799 0.0 1016109
09:00+22з017536 0.0 1018279
12:00+24вюв32738 0.0 1016533
15:00+24вюв22725 0.0 1014397
18:00+23св23825 0.0 1015116
21:00+22ссв24861 0.1 1016172
21 мая, пт
пт2100:00+22с23915 0.0 1015164
03:00+21с229170 0.0 1014111
06:00+20зюз3490100 0.0 1015214
09:00+22юз338263 0.0 1017346
12:00+23ю338129 0.0 1016475
15:00+24ю448113 0.0 1014467
18:00+23ююв128696 0.0 1015331
21:00+23ссз1187100 0.0 1016117